KLM467 LIBD-LGAV

Flight info

Callsign KLM467
Flight time 1h 10m
Altitude 37000
Route DOLON DCT KAPPO DCT NOSTO UN7 NEMES
Aircraft B739/M-SDE2E3FGHIRWXY/LB1

Departure

Time 2026-04-20 19:08
Airport Bari Karol Wojtyła International Airport (LIBD)

Arrival

Time 2026-04-20 20:18
Airport Athens Eleftherios Venizelos International Airport (LGAV)
Time Latitude Longitude Altitude Speed Heading
2026-04-20 18:56 41.13682 16.76380 134 ft 0 kts 26°
2026-04-20 18:58 41.13710 16.76455 127 ft 0 kts 23°
2026-04-20 19:01 41.13706 16.76453 130 ft 3 kts 21°
2026-04-20 19:01 41.13680 16.76445 131 ft 4 kts 357°
2026-04-20 19:02 41.13655 16.76454 105 ft 4 kts 328°
2026-04-20 19:02 41.13640 16.76468 133 ft 4 kts 32°
2026-04-20 19:02 41.13641 16.76474 133 ft 1 kts 70°
2026-04-20 19:04 41.13641 16.76475 136 ft 1 kts 70°
2026-04-20 19:04 41.13683 16.76537 128 ft 14 kts 30°
2026-04-20 19:04 41.13774 16.76555 123 ft 12 kts
2026-04-20 19:05 41.13829 16.76639 119 ft 14 kts 69°
2026-04-20 19:05 41.13866 16.76768 117 ft 16 kts 69°
2026-04-20 19:05 41.13905 16.76903 113 ft 15 kts 69°
2026-04-20 19:05 41.13942 16.77033 114 ft 15 kts 69°
2026-04-20 19:06 41.13977 16.77158 111 ft 14 kts 70°
2026-04-20 19:06 41.14010 16.77277 110 ft 13 kts 70°
2026-04-20 19:06 41.14063 16.77384 105 ft 16 kts 33°
2026-04-20 19:06 41.14173 16.77415 99 ft 17 kts 349°
2026-04-20 19:07 41.14198 16.77282 100 ft 19 kts 250°
2026-04-20 19:07 41.14082 16.76869 115 ft 86 kts 249°
2026-04-20 19:07 41.13789 16.75835 146 ft 152 kts 249°
2026-04-20 19:07 41.13347 16.74349 459 ft 183 kts 248°
2026-04-20 19:08 41.12871 16.72653 958 ft 207 kts 249°
2026-04-20 19:08 41.11870 16.69080 2736 ft 202 kts 251°
2026-04-20 19:08 41.11382 16.67348 3393 ft 204 kts 251°
2026-04-20 19:09 41.10870 16.65543 4010 ft 208 kts 251°
2026-04-20 19:09 41.10351 16.63718 4594 ft 216 kts 251°
2026-04-20 19:09 41.09823 16.61864 5284 ft 219 kts 251°
2026-04-20 19:09 41.09285 16.59979 6081 ft 219 kts 251°
2026-04-20 19:10 41.09064 16.57989 6734 ft 222 kts 282°
2026-04-20 19:10 41.09740 16.56177 7432 ft 224 kts 312°
2026-04-20 19:10 41.11056 16.55047 8138 ft 230 kts 341°
2026-04-20 19:10 41.12675 16.54965 8839 ft 239 kts 10°
2026-04-20 19:11 41.14261 16.55719 9559 ft 244 kts 19°
2026-04-20 19:11 41.15830 16.56614 10225 ft 247 kts 19°
2026-04-20 19:11 41.17412 16.57516 10882 ft 249 kts 19°
2026-04-20 19:11 41.19019 16.58416 11537 ft 251 kts 18°
2026-04-20 19:12 41.20639 16.59313 12200 ft 254 kts 18°
2026-04-20 19:12 41.22254 16.60222 12854 ft 257 kts 23°
2026-04-20 19:12 41.23625 16.61802 13426 ft 272 kts 56°
2026-04-20 19:12 41.24233 16.64281 13705 ft 296 kts 81°
2026-04-20 19:13 41.24454 16.67105 13896 ft 318 kts 83°
2026-04-20 19:13 41.24663 16.70086 14296 ft 329 kts 82°
2026-04-20 19:13 41.24900 16.73128 14929 ft 332 kts 82°
2026-04-20 19:13 41.25157 16.76190 15605 ft 334 kts 81°
2026-04-20 19:14 41.25419 16.79272 16227 ft 338 kts 83°
2026-04-20 19:14 41.25244 16.82406 16799 ft 345 kts 103°
2026-04-20 19:14 41.24615 16.85497 17457 ft 348 kts 104°
2026-04-20 19:14 41.23954 16.88614 18051 ft 352 kts 104°
2026-04-20 19:15 41.23292 16.91765 18597 ft 356 kts 104°
2026-04-20 19:15 41.22633 16.94961 19137 ft 360 kts 104°
2026-04-20 19:15 41.21977 16.98181 19682 ft 363 kts 103°
2026-04-20 19:15 41.21318 17.01446 20222 ft 367 kts 103°
2026-04-20 19:16 41.20655 17.04738 20756 ft 371 kts 103°
2026-04-20 19:16 41.19978 17.08107 20930 ft 387 kts 103°
2026-04-20 19:16 41.19269 17.11627 21059 ft 403 kts 103°
2026-04-20 19:16 41.18432 17.15251 21149 ft 419 kts 114°
2026-04-20 19:17 41.16789 17.18518 21268 ft 433 kts 132°
2026-04-20 19:17 41.14733 17.21520 21383 ft 446 kts 133°
2026-04-20 19:17 41.12600 17.24592 21503 ft 458 kts 133°
2026-04-20 19:17 41.10442 17.27715 21808 ft 464 kts 133°
2026-04-20 19:18 41.08252 17.30909 22246 ft 467 kts 133°
2026-04-20 19:18 41.06075 17.34108 22701 ft 470 kts 133°
2026-04-20 19:18 41.03900 17.37317 23113 ft 473 kts 133°
2026-04-20 19:18 41.01691 17.40578 23520 ft 477 kts 132°
2026-04-20 19:19 40.99464 17.43865 23855 ft 481 kts 132°
2026-04-20 19:19 40.97217 17.47178 24220 ft 483 kts 133°
2026-04-20 19:19 40.94966 17.50491 24594 ft 485 kts 133°
2026-04-20 19:19 40.92698 17.53825 24934 ft 488 kts 133°
2026-04-20 19:20 40.90419 17.57171 25262 ft 491 kts 133°
2026-04-20 19:20 40.88128 17.60531 25608 ft 494 kts 133°
2026-04-20 19:20 40.85826 17.63923 25927 ft 497 kts 132°
2026-04-20 19:20 40.83518 17.67335 26254 ft 499 kts 132°
2026-04-20 19:21 40.81200 17.70762 26562 ft 502 kts 132°
2026-04-20 19:21 40.78869 17.74206 26921 ft 504 kts 132°
2026-04-20 19:21 40.76526 17.77663 27229 ft 506 kts 132°
2026-04-20 19:21 40.74170 17.81132 27518 ft 509 kts 132°
2026-04-20 19:22 40.71799 17.84617 27797 ft 512 kts 132°
2026-04-20 19:22 40.69416 17.88117 28100 ft 514 kts 132°
2026-04-20 19:22 40.67023 17.91626 28477 ft 514 kts 132°
2026-04-20 19:22 40.64664 17.95084 28929 ft 513 kts 132°
2026-04-20 19:23 40.62256 17.98608 29406 ft 512 kts 132°
2026-04-20 19:23 40.59871 18.02002 29839 ft 511 kts 135°
2026-04-20 19:23 40.57361 18.05312 30208 ft 511 kts 136°
2026-04-20 19:23 40.54802 18.08547 30521 ft 511 kts 137°
2026-04-20 19:24 40.52222 18.11757 30889 ft 509 kts 137°
2026-04-20 19:24 40.49619 18.14994 31283 ft 508 kts 137°
2026-04-20 19:24 40.47058 18.18196 31616 ft 508 kts 137°
2026-04-20 19:24 40.44531 18.21374 31895 ft 509 kts 137°
2026-04-20 19:25 40.41980 18.24597 32206 ft 509 kts 137°
2026-04-20 19:25 40.39403 18.27860 32554 ft 508 kts 137°
2026-04-20 19:25 40.36860 18.31079 32876 ft 508 kts 137°
2026-04-20 19:25 40.34349 18.34256 33159 ft 508 kts 137°
2026-04-20 19:26 40.31811 18.37462 33432 ft 508 kts 137°
2026-04-20 19:26 40.29251 18.40691 33738 ft 508 kts 137°
2026-04-20 19:26 40.26706 18.43896 34043 ft 507 kts 137°
2026-04-20 19:26 40.24175 18.47080 34400 ft 504 kts 137°
2026-04-20 19:27 40.21651 18.50252 34681 ft 502 kts 137°
2026-04-20 19:27 40.19127 18.53418 34877 ft 503 kts 137°
2026-04-20 19:27 40.16597 18.56590 35067 ft 504 kts 137°
2026-04-20 19:27 40.14069 18.59756 35309 ft 503 kts 137°
2026-04-20 19:28 40.11534 18.62927 35570 ft 502 kts 137°
2026-04-20 19:28 40.09009 18.66082 35799 ft 502 kts 137°
2026-04-20 19:28 40.06488 18.69229 35999 ft 502 kts 137°
2026-04-20 19:28 40.03967 18.72373 36226 ft 501 kts 137°
2026-04-20 19:29 40.01445 18.75515 36470 ft 500 kts 137°
2026-04-20 19:29 39.98934 18.78639 36712 ft 498 kts 137°
2026-04-20 19:29 39.96421 18.81763 36969 ft 497 kts 137°
2026-04-20 19:30 39.91427 18.87961 37022 ft 500 kts 137°
2026-04-20 19:30 39.86396 18.94194 37018 ft 498 kts 137°
2026-04-20 19:31 39.81428 19.00460 37018 ft 496 kts 132°
2026-04-20 19:31 39.77292 19.07603 37024 ft 494 kts 125°
2026-04-20 19:32 39.73317 19.14896 37020 ft 493 kts 125°
2026-04-20 19:32 39.69386 19.22014 37022 ft 493 kts 126°
2026-04-20 19:33 39.65356 19.29211 37026 ft 494 kts 126°
2026-04-20 19:33 39.61300 19.36411 37027 ft 495 kts 126°
2026-04-20 19:34 39.57229 19.43622 37027 ft 496 kts 126°
2026-04-20 19:34 39.53148 19.50841 37034 ft 497 kts 126°
2026-04-20 19:35 39.49080 19.58021 37025 ft 498 kts 127°
2026-04-20 19:35 39.44972 19.65256 37024 ft 498 kts 127°
2026-04-20 19:36 39.40863 19.72476 37013 ft 498 kts 127°
2026-04-20 19:36 39.36752 19.79683 37022 ft 497 kts 127°
2026-04-20 19:37 39.32638 19.86879 37033 ft 497 kts 127°
2026-04-20 19:37 39.28540 19.94031 37033 ft 496 kts 127°
2026-04-20 19:38 39.25125 19.99979 37034 ft 495 kts 127°
2026-04-20 19:38 39.21021 20.07114 37040 ft 495 kts 127°
2026-04-20 19:39 39.16918 20.14232 37048 ft 494 kts 127°
2026-04-20 19:39 39.12824 20.21320 37048 ft 493 kts 127°
2026-04-20 19:40 39.08735 20.28415 37043 ft 492 kts 127°
2026-04-20 19:40 39.04667 20.35504 37054 ft 492 kts 127°
2026-04-20 19:41 39.00598 20.42579 37052 ft 492 kts 127°
2026-04-20 19:41 38.96521 20.49644 37069 ft 492 kts 127°
2026-04-20 19:42 38.92436 20.56709 37056 ft 493 kts 127°
2026-04-20 19:42 38.88368 20.63730 37049 ft 493 kts 127°
2026-04-20 19:43 38.84945 20.69596 37047 ft 493 kts 128°
2026-04-20 19:43 38.80096 20.77800 37056 ft 494 kts 128°
2026-04-20 19:44 38.75939 20.84812 37052 ft 494 kts 128°
2026-04-20 19:44 38.71779 20.91828 37064 ft 494 kts 128°
2026-04-20 19:45 38.67617 20.98837 37050 ft 494 kts 128°
2026-04-20 19:45 38.63443 21.05852 37056 ft 495 kts 128°
2026-04-20 19:46 38.59271 21.12850 37065 ft 494 kts 128°
2026-04-20 19:46 38.55665 21.18884 37070 ft 493 kts 128°
2026-04-20 19:47 38.52031 21.24950 37060 ft 493 kts 128°
2026-04-20 19:47 38.47871 21.31887 37045 ft 492 kts 128°
2026-04-20 19:48 38.43712 21.38807 37065 ft 490 kts 128°
2026-04-20 19:48 38.39554 21.45710 37066 ft 490 kts 128°
2026-04-20 19:49 38.35403 21.52585 37069 ft 489 kts 128°
2026-04-20 19:49 38.31272 21.59412 37065 ft 489 kts 128°
2026-04-20 19:50 38.27082 21.66325 37067 ft 490 kts 128°
2026-04-20 19:50 38.22939 21.73143 37067 ft 490 kts 128°
2026-04-20 19:51 38.18757 21.80013 37089 ft 491 kts 128°
2026-04-20 19:51 38.14563 21.86886 37058 ft 493 kts 128°
2026-04-20 19:52 38.10351 21.93776 37066 ft 494 kts 128°
2026-04-20 19:52 38.06130 22.00666 37067 ft 495 kts 128°
2026-04-20 19:53 38.01894 22.07565 37068 ft 496 kts 128°
2026-04-20 19:53 37.97652 22.14459 37069 ft 496 kts 128°
2026-04-20 19:54 37.93395 22.21365 37056 ft 497 kts 128°
2026-04-20 19:54 37.89135 22.28258 37062 ft 496 kts 128°
2026-04-20 19:55 37.84900 22.35100 37051 ft 496 kts 129°
2026-04-20 19:55 37.80646 22.41959 37059 ft 495 kts 129°
2026-04-20 19:56 37.76366 22.48844 37062 ft 495 kts 129°
2026-04-20 19:56 37.72111 22.55675 36993 ft 496 kts 129°
2026-04-20 19:56 37.70074 22.59186 36272 ft 506 kts 119°
2026-04-20 19:57 37.68522 22.63135 35718 ft 500 kts 113°
2026-04-20 19:57 37.67136 22.67166 34921 ft 501 kts 111°
2026-04-20 19:57 37.65771 22.71269 34162 ft 501 kts 111°
2026-04-20 19:57 37.64425 22.75268 33222 ft 502 kts 111°
2026-04-20 19:58 37.63031 22.79308 32376 ft 501 kts 112°
2026-04-20 19:58 37.61612 22.83328 31503 ft 501 kts 112°
2026-04-20 19:58 37.60178 22.87333 30622 ft 502 kts 112°
2026-04-20 19:58 37.58733 22.91347 29542 ft 503 kts 112°
2026-04-20 19:59 37.57276 22.95386 28362 ft 507 kts 112°
2026-04-20 19:59 37.55821 22.99424 27324 ft 506 kts 112°
2026-04-20 19:59 37.54380 23.03423 26675 ft 498 kts 112°
2026-04-20 19:59 37.52950 23.07385 25948 ft 493 kts 112°
2026-04-20 20:00 37.51693 23.11353 25243 ft 485 kts 101°
2026-04-20 20:00 37.51380 23.15510 24629 ft 470 kts 82°
2026-04-20 20:00 37.51960 23.19496 23989 ft 458 kts 68°
2026-04-20 20:00 37.53253 23.23079 23432 ft 443 kts 54°
2026-04-20 20:01 37.55038 23.26182 22683 ft 432 kts 43°
2026-04-20 20:01 37.57227 23.28672 22049 ft 419 kts 30°
2026-04-20 20:01 37.59701 23.30547 21419 ft 411 kts 25°
2026-04-20 20:01 37.62203 23.32295 20769 ft 410 kts 24°
2026-04-20 20:02 37.64699 23.34034 20119 ft 410 kts 25°
2026-04-20 20:02 37.67183 23.35790 19505 ft 410 kts 25°
2026-04-20 20:02 37.69655 23.37568 18864 ft 407 kts 26°
2026-04-20 20:02 37.72094 23.39338 18224 ft 404 kts 26°
2026-04-20 20:03 37.74522 23.41122 17499 ft 402 kts 29°
2026-04-20 20:03 37.76614 23.43470 16834 ft 407 kts 48°
2026-04-20 20:03 37.78029 23.46564 16225 ft 408 kts 64°
2026-04-20 20:03 37.79090 23.49877 15615 ft 405 kts 65°
2026-04-20 20:04 37.80123 23.53185 14990 ft 402 kts 65°
2026-04-20 20:04 37.81137 23.56418 14388 ft 399 kts 65°
2026-04-20 20:04 37.82168 23.59665 13792 ft 396 kts 65°
2026-04-20 20:04 37.83200 23.62883 13103 ft 394 kts 65°
2026-04-20 20:05 37.84230 23.66076 12478 ft 390 kts 65°
2026-04-20 20:05 37.85254 23.69245 11869 ft 386 kts 66°
2026-04-20 20:05 37.86262 23.72363 11282 ft 381 kts 66°
2026-04-20 20:05 37.87258 23.75448 10859 ft 373 kts 66°
2026-04-20 20:06 37.88215 23.78420 10730 ft 358 kts 66°
2026-04-20 20:06 37.89121 23.81304 10552 ft 346 kts 69°
2026-04-20 20:06 37.89853 23.84142 10440 ft 333 kts 71°
2026-04-20 20:06 37.90507 23.86911 10291 ft 322 kts 72°
2026-04-20 20:07 37.91131 23.89580 10159 ft 311 kts 72°
2026-04-20 20:07 37.91739 23.92151 10037 ft 301 kts 71°
2026-04-20 20:07 37.92336 23.94643 9977 ft 288 kts 71°
2026-04-20 20:07 37.92925 23.97080 9490 ft 292 kts 71°
2026-04-20 20:08 37.93519 23.99526 9150 ft 290 kts 71°
2026-04-20 20:08 37.94112 24.01973 8797 ft 289 kts 71°
2026-04-20 20:08 37.94702 24.04403 8450 ft 288 kts 71°
2026-04-20 20:08 37.95286 24.06813 8120 ft 286 kts 71°
2026-04-20 20:09 37.95868 24.09219 7782 ft 285 kts 71°
2026-04-20 20:09 37.96446 24.11612 7452 ft 283 kts 71°
2026-04-20 20:09 37.97022 24.13997 7115 ft 282 kts 71°
2026-04-20 20:09 37.97594 24.16369 6794 ft 281 kts 70°
2026-04-20 20:10 37.98164 24.18733 6461 ft 279 kts 71°
2026-04-20 20:10 37.98873 24.21000 6124 ft 275 kts 53°
2026-04-20 20:10 38.00236 24.22570 5828 ft 267 kts 25°
2026-04-20 20:10 38.01987 24.23183 5537 ft 260 kts
2026-04-20 20:11 38.03756 24.22912 5235 ft 255 kts 339°
2026-04-20 20:11 38.05381 24.22070 4952 ft 252 kts 334°
2026-04-20 20:11 38.06857 24.20894 4655 ft 249 kts 319°
2026-04-20 20:11 38.08161 24.19477 4372 ft 247 kts 318°
2026-04-20 20:12 38.09369 24.17951 4061 ft 244 kts 301°
2026-04-20 20:12 38.09962 24.15970 3812 ft 239 kts 281°
2026-04-20 20:12 38.10170 24.13888 3551 ft 235 kts 275°
2026-04-20 20:13 38.10345 24.10100 3324 ft 197 kts 260°
2026-04-20 20:13 38.09710 24.08686 3164 ft 180 kts 222°
2026-04-20 20:13 38.08753 24.07700 3078 ft 175 kts 221°
2026-04-20 20:13 38.07829 24.06790 3046 ft 160 kts 220°
2026-04-20 20:14 38.06935 24.05936 2989 ft 160 kts 220°
2026-04-20 20:14 38.06054 24.05101 2991 ft 158 kts 220°
2026-04-20 20:14 38.05169 24.04259 2851 ft 161 kts 220°
2026-04-20 20:14 38.04282 24.03418 2642 ft 155 kts 220°
2026-04-20 20:15 38.03439 24.02618 2459 ft 149 kts 220°
2026-04-20 20:15 38.02606 24.01825 2260 ft 151 kts 219°
2026-04-20 20:15 38.01763 24.01024 2051 ft 152 kts 219°
2026-04-20 20:15 38.00914 24.00217 1860 ft 153 kts 218°
2026-04-20 20:16 38.00073 23.99419 1646 ft 152 kts 218°
2026-04-20 20:16 37.99234 23.98620 1443 ft 151 kts 218°
2026-04-20 20:16 37.98396 23.97825 1255 ft 150 kts 219°
2026-04-20 20:16 37.97568 23.97038 1048 ft 149 kts 219°
2026-04-20 20:17 37.96747 23.96257 838 ft 146 kts 218°
2026-04-20 20:17 37.95925 23.95476 615 ft 149 kts 217°
2026-04-20 20:17 37.95106 23.94702 408 ft 146 kts 218°
2026-04-20 20:17 37.94294 23.93932 304 ft 147 kts 217°
2026-04-20 20:18 37.93619 23.93293 294 ft 52 kts 216°
2026-04-20 20:18 37.93422 23.93162 289 ft 20 kts 193°
2026-04-20 20:18 37.93355 23.93143 291 ft 0 kts 189°
2026-04-20 20:19 37.93308 23.93136 296 ft 12 kts 180°
2026-04-20 20:19 37.93250 23.93201 299 ft 12 kts 110°
2026-04-20 20:19 37.93228 23.93299 299 ft 11 kts 92°
2026-04-20 20:19 37.93270 23.93378 299 ft 11 kts 38°
2026-04-20 20:20 37.93311 23.93417 300 ft 11 kts 36°
2026-04-20 20:20 37.93373 23.93507 299 ft 11 kts 83°
2026-04-20 20:20 37.93359 23.93565 300 ft 10 kts 126°
2026-04-20 20:20 37.93314 23.93634 302 ft 10 kts 129°
2026-04-20 20:21 37.93272 23.93702 300 ft 10 kts 125°
2026-04-20 20:21 37.93207 23.93817 300 ft 15 kts 125°
2026-04-20 20:21 37.93164 23.93891 300 ft 16 kts 127°
2026-04-20 20:21 37.93087 23.94011 301 ft 19 kts 128°
2026-04-20 20:22 37.93006 23.94148 300 ft 20 kts 127°
2026-04-20 20:22 37.92920 23.94294 300 ft 21 kts 127°
2026-04-20 20:22 37.92920 23.94445 301 ft 20 kts 45°
2026-04-20 20:22 37.93030 23.94547 300 ft 19 kts 37°
2026-04-20 20:23 37.93149 23.94592 303 ft 18 kts
2026-04-20 20:23 37.93265 23.94640 300 ft 18 kts 37°
2026-04-20 20:23 37.93346 23.94657 302 ft 10 kts 297°
2026-04-20 20:23 37.93373 23.94612 301 ft 0 kts 306°